West Palm Beach, FL (33401)

6:22 AM EDT on April 28, 2015 (GMT -0400)
President Country Club West Palm Beach | | Change Station
CLOSE
Current Station
Personal Weather Station
Location: West Palm Beach, FL
Elevation: 60 ft
Nearby Weather Stations

Elev 60 ft 26.73 °N, 80.08 °W | Updated 2 minutes ago

Scattered Clouds
Scattered Clouds
71.8 °F
Feels Like 71.8 °F
N
0.0
Wind Variable Wind from WNW
Gusts 0.0 mph

Today
High -- | Low -- °F
--% Chance of Precip.
Yesterday
High -- | Low -- °F
Precip. -- in
6:44 AM 7:51 PM
Waxing Gibbous, 72% visible
Pressure 29.80 in
Visibility 10.0 miles
Clouds Few 8000 ft
Scattered Clouds 18000 ft
Scattered Clouds 25000 ft
Dew Point 69 °F
Humidity 92%
Rainfall 0.00 in
Snow Depth Not available.
UV 0 out of 12
Pollen 4.30 out of 12
Air Quality Not available.
Flu Activity Local Activity
METAR KPBI 280953Z 14003KT 10SM FEW080 SCT180 SCT250 24/21 A2980 RMK AO2 SLP089 T02390211 $

More Conditions Fewer Conditions

Pressure 29.80 in
Visibility 10.0 miles
Clouds Few 8000 ft
Scattered Clouds 18000 ft
Scattered Clouds 25000 ft
Dew Point 69 °F
Humidity 92%
Rainfall 0.00 in
Snow Depth Not available.
UV 0 out of 12
Pollen 4.30 out of 12
Air Quality Not available.
Flu Activity Local Activity
METAR KPBI 280953Z 14003KT 10SM FEW080 SCT180 SCT250 24/21 A2980 RMK AO2 SLP089 T02390211 $

More Conditions Fewer Conditions

10-Day Weather Forecast

Almanac

Astronomy

Apr. 28, 2015 Rise Set
Actual Time
Civil Twilight
Nautical Twilight
Astronomical Twilight
Moon
Length of Visible Light
Length of Day
Tomorrow will be .
, % of the Moon is Illuminated

Today's Extremes

State Highs State Lows

Community

WunderPhotos

Upload Photos

1,817,600 photos uploaded!

WunderBlogs® & News

Nearby

Air Quality

  Air Quality AQ Index Pollutant
Not available.

Snow Depth

Station Depth Elevation

Earthquake Activity

City Distance Mag. Time & Date
Minimum magnitude displayed is 2.5.

Coastal Water Temperatures

Place Temperature

Stations

Nearby Weather Stations

Station Location Temp. Windchill Dew Point Humidity Wind Precip. Elev Updated Type